Lapse_Rate
2.3 2.2 2.6 2.9 2.9 3.0 3.5 4.0 4.3 5.0 5.2 5.7 6.3 6.5 6.7 6.7 6.6 6.6 6.7 6.6 6.6 6.7 6.8 6.6 6.7 6.7 6.5 6.4 6.5 6.5 6.0 5.8 5.6 5.5 5.4 5.5 5.3 5.4 5.2 5.4 5.5 5.4 5.5 5.4 4.9 4.3 4.3 4.9 4.8 5.0 5.0 4.9 4.7 4.4
2.3 2.5 2.5 2.6 2.9 2.9 3.2 3.5 3.9 4.3 4.9 5.1 5.7 6.4 6.4 6.4 6.6 6.6 6.3 6.3 6.4 6.4 6.5 6.5 6.3 6.5 6.4 6.4 6.2 6.3 6.1 5.8 5.6 5.5 5.4 5.2 5.1 4.8 5.2 4.9 5.3 5.0 5.4 5.5 5.5 5.4 5.2 4.6 4.5 4.5 4.4 4.4 4.2 4.0
3.7 2.8 2.7 3.2 3.5 3.3 3.2 3.8 4.1 4.3 4.5 4.9 5.3 5.9 6.3 6.2 6.0 6.5 6.4 6.0 6.0 6.0 6.1 6.0 5.9 6.1 6.2 6.2 6.1 5.6 5.7 5.6 5.4 5.2 4.8 4.8 4.6 4.7 4.8 4.7 4.7 4.9 4.9 4.9 5.1 5.3 5.0 4.7 4.5 4.4 4.2 4.1 4.1 3.8
5.7 4.9 4.0 3.8 4.4 4.4 4.0 3.9 4.2 4.3 4.3 4.8 4.8 5.3 6.0 6.1 5.7 5.7 5.9 6.2 5.9 5.5 5.5 5.5 5.8 5.7 5.9 5.8 5.8 5.5 5.2 4.8 4.8 4.8 4.7 4.5 4.4 4.4 4.2 4.3 4.1 4.6 4.8 5.1 4.8 5.0 4.6 4.5 4.4 4.3 4.2 4.1 4.0 3.7
6.0 5.6 6.2 6.4 5.2 4.6 4.6 4.3 4.1 4.4 4.3 4.9 4.9 5.4 5.7 5.9 5.4 5.2 5.4 5.2 5.2 5.2 4.9 5.1 5.5 5.5 5.6 5.3 5.3 5.1 5.0 4.7 4.7 4.7 4.7 4.5 4.5 4.3 4.0 3.8 4.3 5.3 5.2 4.5 4.2 4.6 4.5 4.6 4.5 4.3 4.3 4.1 3.9 3.8
6.2 5.8 7.0 7.1 6.7 5.7 4.5 4.3 3.9 4.2 4.3 4.9 4.9 5.7 5.5 5.3 4.8 4.6 4.6 4.8 4.6 4.6 4.6 4.6 4.7 5.0 5.0 5.2 5.2 5.0 4.8 4.8 4.6 4.7 4.5 4.3 4.5 4.2 3.7 3.6 5.5 5.3 4.9 4.5 4.5 4.4 4.4 4.3 4.3 4.5 3.9 3.8 3.9 3.9
6.1 5.3 6.6 6.4 6.8 6.9 6.0 5.1 4.4 4.5 4.6 4.8 4.7 4.7 5.1 4.6 4.4 4.2 4.3 4.2 4.7 4.6 4.7 4.5 4.8 4.7 5.0 4.9 4.9 4.9 4.6 4.6 4.6 4.5 4.3 4.3 4.5 4.0 3.6 4.1 5.5 4.2 4.1 4.4 4.3 4.2 4.2 4.1 4.1 3.8 3.8 3.9 3.8 3.8
6.0 5.5 5.5 6.2 6.5 6.6 6.3 6.4 6.7 6.1 5.5 5.5 5.3 5.1 4.6 4.4 4.3 4.4 4.1 4.3 4.9 5.0 5.0 5.3 4.6 4.2 4.6 4.4 4.6 4.6 4.6 4.6 4.5 4.4 4.3 4.7 4.2 4.0 3.8 5.3 4.3 4.0 4.0 4.1 4.2 4.2 4.1 4.1 4.0 3.8 3.9 3.9 3.7 3.7
6.2 5.8 5.5 5.4 5.6 5.8 5.8 6.1 6.1 5.7 5.4 5.2 5.0 4.9 4.8 5.0 4.8 4.8 5.0 5.3 5.2 5.1 5.5 5.2 4.7 4.3 4.7 4.6 4.5 4.6 4.7 4.7 4.6 4.4 4.4 4.3 3.9 4.6 5.0 4.3 4.1 4.0 4.1 4.2 4.4 4.6 4.5 4.3 4.2 4.1 4.0 4.0 4.0 4.1
6.4 6.1 5.8 5.3 5.3 5.4 5.5 6.0 6.2 6.2 6.2 6.1 5.8 5.4 4.8 4.9 4.8 5.0 5.1 5.4 5.1 5.0 5.2 5.1 4.5 4.6 5.0 5.1 4.7 4.7 4.8 4.8 4.3 4.3 4.3 3.7 3.8 5.1 4.5 4.2 4.1 4.1 4.2 4.3 4.4 4.3 4.2 4.3 4.2 4.2 4.2 4.0 4.0 4.4
6.6 6.5 5.9 5.7 5.5 5.1 5.2 5.2 5.4 5.7 5.9 5.9 5.8 5.5 5.2 4.9 4.6 4.8 4.9 5.4 5.2 5.2 4.9 4.7 4.8 4.9 4.9 5.0 5.0 4.8 4.6 4.5 4.1 3.8 4.3 3.7 4.5 4.8 4.4 4.2 4.1 4.3 4.5 4.5 4.4 4.4 4.3 4.3 4.3 4.3 4.3 4.6 5.0 5.4
6.9 6.6 6.3 5.8 5.6 5.6 5.5 5.0 5.0 5.4 5.5 5.6 5.7 5.7 5.4 5.1 5.1 5.4 5.3 5.3 5.2 5.2 4.7 4.7 4.9 5.0 4.9 4.9 4.8 4.5 4.5 4.5 4.0 3.7 4.1 3.9 4.5 4.3 4.0 4.1 4.4 4.6 4.5 4.5 4.4 4.5 4.6 4.7 4.7 4.9 5.3 5.7 6.2 6.5
6.9 6.7 6.6 6.3 5.8 5.5 5.4 5.5 5.6 5.4 5.2 5.1 5.3 5.0 5.2 5.2 5.3 5.1 4.9 4.8 4.8 4.7 4.9 4.9 4.9 4.9 4.7 4.8 4.6 4.6 4.5 4.2 4.0 3.9 3.9 4.5 4.0 3.9 4.0 4.3 4.4 4.3 4.3 4.4 4.5 4.8 5.0 5.1 5.4 5.7 6.1 6.6 6.8 7.0
6.8 6.8 6.6 6.4 6.1 5.7 5.3 5.2 5.3 5.3 5.2 4.9 4.6 4.6 4.6 4.7 4.6 4.5 4.7 4.9 5.1 4.7 4.8 4.7 4.9 4.9 4.7 4.6 4.5 4.5 4.2 4.2 4.0 4.0 4.6 4.2 4.2 4.4 4.3 4.3 4.4 4.3 4.4 4.7 5.0 5.2 5.5 5.8 6.2 6.7 7.0 7.4 7.6 7.8
6.9 6.8 6.7 6.5 6.6 6.2 5.8 5.6 5.3 5.2 5.3 5.0 4.8 4.5 4.2 4.3 4.3 4.3 4.4 4.6 4.6 4.5 4.7 4.9 4.9 5.1 4.9 4.7 4.6 4.6 4.4 4.3 4.3 4.5 4.4 4.6 4.6 4.6 4.6 4.6 4.8 5.0 5.1 5.3 5.6 6.0 6.4 6.8 7.0 7.1 7.5 7.8 7.9 7.6
7.0 7.0 6.7 6.6 6.5 6.6 6.3 6.0 5.6 5.3 5.2 5.1 4.9 4.8 4.8 4.6 4.8 4.9 4.9 5.0 5.2 5.3 5.0 4.9 5.0 4.8 5.0 5.1 5.0 5.0 4.9 5.0 4.9 5.2 5.1 5.0 5.0 5.2 5.2 5.3 5.4 5.6 5.9 6.3 6.6 6.9 7.1 7.2 7.3 7.4 7.6 7.5 7.4 7.4
7.0 7.0 6.8 6.7 6.7 6.5 6.4 6.2 6.0 5.9 5.7 5.6 5.4 5.4 5.4 5.3 5.2 5.3 5.4 5.2 5.2 5.1 5.1 5.2 5.2 5.2 5.2 5.3 5.4 5.5 5.7 5.8 5.8 5.8 5.7 5.8 6.0 6.0 6.0 6.1 6.5 6.7 6.9 7.2 7.4 7.5 7.6 7.5 7.4 7.4 7.3 7.4 7.4 7.4
7.5 7.4 7.2 6.8 6.7 6.6 6.6 6.3 6.2 6.1 5.9 5.9 5.9 5.8 5.7 6.0 5.9 5.8 5.6 5.5 5.5 5.5 5.6 5.8 6.0 6.0 5.9 5.9 5.8 6.0 6.1 6.1 6.3 6.4 6.4 6.4 6.5 6.6 6.9 7.2 7.5 7.7 7.8 7.9 7.8 7.5 7.2 7.2 7.3 7.4 7.4 7.3 7.2 7.1
8.2 7.8 7.7 7.5 7.2 6.7 6.6 6.4 6.4 6.1 6.0 6.1 6.1 6.0 6.2 6.2 6.2 6.2 6.1 6.0 6.0 5.9 6.0 6.3 6.5 6.5 6.3 6.2 6.5 6.8 6.9 7.1 7.1 7.0 7.1 7.2 7.3 7.7 8.1 8.3 8.2 8.0 7.8 7.6 7.3 7.3 7.4 7.4 7.4 7.2 6.9 6.8 6.7 6.8
8.3 8.3 8.1 7.7 7.5 7.4 7.2 6.7 6.5 6.7 6.5 6.3 6.1 6.2 6.2 6.4 6.5 6.5 6.5 6.6 6.5 6.4 6.6 7.1 7.7 7.4 7.0 7.0 7.2 7.3 7.5 7.9 7.7 7.7 7.8 7.9 8.2 8.3 8.1 8.0 7.8 7.7 7.6 7.6 7.6 7.4 7.3 7.2 7.3 7.2 7.0 6.9 6.7 6.7
8.6 8.5 8.5 8.4 8.2 7.9 7.6 7.4 7.2 6.9 6.7 6.7 6.8 6.7 6.6 6.7 6.6 6.8 7.1 7.2 6.9 7.0 7.7 8.2 8.4 8.2 7.8 7.6 7.7 8.0 8.1 8.0 8.1 8.1 8.1 8.3 8.2 8.0 7.9 7.8 7.8 7.7 7.8 7.6 7.4 7.5 7.4 7.2 7.1 6.9 6.8 6.7 6.7 6.6
8.6 8.6 8.5 8.4 8.5 8.5 8.3 8.3 7.9 7.6 7.5 7.4 7.2 7.0 6.9 6.9 7.0 7.0 7.1 7.5 7.9 8.0 8.3 8.3 8.1 8.0 7.9 8.0 8.2 8.3 8.2 8.1 8.2 8.2 8.2 8.2 8.1 7.9 7.9 7.8 7.8 7.8 7.8 7.7 7.5 7.4 7.2 7.0 6.8 6.7 6.8 6.8 6.7 6.6
8.4 8.4 8.3 8.3 8.4 8.6 8.8 8.5 8.3 8.3 8.1 7.9 7.6 7.4 7.4 7.4 7.4 7.2 7.3 7.7 8.0 8.0 7.7 7.7 8.1 8.1 8.2 8.4 8.5 8.4 8.3 8.3 8.2 8.2 8.1 7.9 7.8 7.8 7.9 7.8 7.7 7.7 7.7 7.6 7.5 7.2 7.1 6.9 6.9 6.9 6.9 6.9 6.9 6.8
8.4 8.3 8.3 8.4 8.6 8.6 8.6 8.6 8.6 8.6 8.5 8.4 8.4 8.2 8.0 7.8 7.6 7.6 7.6 8.0 7.9 8.0 8.2 8.2 8.2 8.4 8.5 8.5 8.4 8.4 8.3 8.2 8.0 7.9 8.0 7.9 7.9 7.8 7.8 7.7 7.6 7.5 7.4 7.4 7.1 7.1 7.1 6.9 6.8 6.8 6.8 6.9 6.9 7.0
8.4 8.3 8.4 8.6 8.7 8.8 8.8 8.8 8.8 8.6 8.6 8.3 8.2 8.1 8.2 8.2 8.0 8.0 8.1 8.2 8.3 8.3 8.5 8.6 8.5 8.5 8.5 8.4 8.3 8.2 8.2 8.1 8.0 7.9 7.8 7.7 7.7 7.6 7.7 7.6 7.5 7.3 7.4 7.2 7.2 7.2 7.0 6.9 6.8 6.9 6.9 6.9 6.9 6.9
8.5 8.4 8.4 8.5 8.5 8.6 8.5 8.4 8.3 8.2 8.3 8.3 8.2 8.4 8.2 8.1 8.2 8.2 8.5 8.4 8.3 8.3 8.4 8.5 8.5 8.5 8.4 8.2 8.0 7.9 7.8 7.8 7.7 7.7 7.5 7.5 7.4 7.5 7.7 7.6 7.5 7.5 7.4 7.1 7.2 7.1 7.0 7.0 7.0 7.0 6.9 6.9 6.9 6.8
8.4 8.5 8.6 8.5 8.6 8.6 8.5 8.3 8.3 8.3 8.2 8.2 8.1 8.0 7.9 8.0 8.2 8.4 8.3 8.2 8.3 8.5 8.5 8.4 8.2 8.0 7.9 7.8 7.7 7.6 7.5 7.4 7.4 7.4 7.4 7.4 7.4 7.3 7.3 7.2 7.3 7.3 7.1 7.1 7.1 7.0 7.0 7.0 7.0 6.9 6.8 6.8 6.9 6.9
8.5 8.7 8.7 8.7 8.5 8.5 8.4 8.3 8.2 8.1 8.2 8.1 7.9 8.0 8.1 8.1 8.3 8.3 8.2 8.2 8.1 8.0 7.9 7.9 7.9 7.7 7.6 7.5 7.4 7.4 7.3 7.1 7.0 7.0 7.0 7.0 6.9 7.0 6.9 6.9 6.9 6.9 6.9 7.0 7.1 7.0 7.0 7.0 6.9 6.7 6.8 6.8 6.7 6.6
8.5 8.7 8.6 8.6 8.3 8.3 8.2 8.2 8.1 8.1 7.9 7.8 8.1 7.9 8.0 8.0 8.0 7.9 7.8 7.8 7.7 7.7 7.8 7.7 7.6 7.5 7.3 7.2 7.0 6.8 6.7 6.7 6.7 6.6 6.6 6.6 6.6 6.4 6.4 6.6 6.6 6.7 6.8 6.9 6.8 7.0 7.1 6.9 6.8 6.8 6.8 6.7 6.6 6.6
8.6 8.5 8.5 8.4 8.2 8.1 8.1 8.0 7.9 7.8 7.8 7.8 7.9 7.9 7.9 7.9 7.9 7.9 7.9 7.8 7.8 7.8 7.6 7.4 7.2 7.0 6.8 6.7 6.5 6.5 6.3 6.6 6.7 6.6 6.7 6.6 6.5 6.4 6.4 6.5 6.6 6.7 6.8 7.0 7.0 6.8 6.8 6.7 6.6 6.6 6.6 6.6 6.5 6.5
8.4 8.3 8.2 8.2 8.0 7.8 7.7 7.8 7.8 7.8 7.9 8.0 8.0 7.9 7.9 8.0 8.0 7.9 7.9 7.8 7.7 7.5 7.3 7.1 6.9 6.8 6.7 6.6 6.7 6.7 6.4 6.4 6.3 6.4 6.3 6.3 6.4 6.5 6.6 6.7 6.8 6.9 7.0 7.0 6.9 6.8 6.8 6.8 6.7 6.6 6.6 6.5 6.5 6.5
8.2 8.1 8.0 7.9 7.8 7.8 7.8 7.8 7.8 7.9 7.8 7.8 7.9 8.1 8.1 8.0 8.0 8.0 7.7 7.6 7.4 7.2 7.0 6.8 6.7 6.7 6.7 6.7 6.8 6.8 6.6 6.5 6.5 6.5 6.5 6.5 6.5 6.5 6.6 6.7 6.8 6.9 7.0 6.9 6.9 6.8 6.8 6.8 6.7 6.6 6.5 6.5 6.4 6.4
7.9 7.9 7.9 7.9 7.8 7.9 8.0 8.0 8.0 8.0 8.0 8.1 8.1 8.2 8.2 8.2 8.0 7.7 7.6 7.4 7.3 7.1 6.9 6.7 6.6 6.6 6.8 6.8 6.6 6.6 6.6 6.5 6.4 6.4 6.5 6.6 6.7 6.9 6.9 6.8 6.9 7.0 7.0 6.9 6.9 6.9 6.8 6.8 6.7 6.5 6.4 6.3 6.2 6.1
Wind_Speed
40 41 42 43 43 43 42 43 47 42 39 37 33 29 26 24 20 6 2 8 4 3 3 4 4 4 3 2 4 5 4 1 2 3 4 4 3 4 1 3 5 6 5 4 2 1 7 4 2 5 4 3 5 5
40 44 44 50 47 49 51 50 50 45 41 39 36 32 28 26 24 14 2 4 4 2 3 1 1 1 2 3 4 3 4 4 4 3 1 2 2 0 3 3 1 2 5 4 7 5 2 4 1 2 4 4 4 5
45 48 51 49 52 60 59 54 52 45 42 40 37 33 29 29 27 17 3 4 2 2 2 1 4 2 3 4 2 3 1 4 4 2 3 2 2 3 3 5 2 1 2 2 1 1 4 1 3 2 3 4 4 4
45 48 53 54 61 56 49 47 50 44 42 39 36 33 31 29 27 19 4 4 3 3 3 3 1 3 3 2 1 1 4 4 5 2 2 2 2 2 2 1 2 3 1 2 3 5 3 3 1 5 5 6 5 5
47 49 56 51 37 41 46 44 42 41 40 38 34 32 30 28 27 19 3 5 3 4 3 2 3 2 3 2 6 4 6 5 2 2 2 3 1 2 1 1 3 4 4 3 4 2 2 4 6 5 6 6 7 6
46 46 52 16 25 38 47 44 39 36 37 36 34 32 29 28 27 5 2 3 6 3 3 3 2 2 3 4 7 7 4 3 2 3 2 2 2 3 2 3 7 3 3 4 3 0 4 4 6 5 5 8 5 5
40 42 49 10 22 33 35 36 35 32 33 32 31 30 30 30 12 4 2 3 18 4 3 3 2 0 2 3 2 2 2 2 2 2 3 3 2 2 2 4 4 6 6 3 3 2 2 4 5 9 4 4 5 4
36 37 37 40 39 26 26 30 28 26 27 27 26 27 29 27 16 4 2 7 10 4 2 3 2 2 3 3 2 1 2 1 1 2 1 2 1 1 4 3 3 3 3 4 5 6 5 2 2 2 3 4 4 5
32 32 33 32 32 35 33 21 21 24 26 29 31 31 8 4 3 3 18 18 6 3 5 3 6 4 3 2 2 1 1 2 1 2 2 2 2 5 1 2 2 1 2 6 6 5 2 3 3 4 5 3 4 5
28 28 26 27 27 29 28 28 28 27 22 27 8 4 3 1 22 8 7 2 4 2 1 2 2 3 2 2 2 2 2 2 2 1 1 1 2 4 3 3 4 5 4 4 3 3 4 5 5 3 4 2 3 5
23 24 24 20 21 21 22 21 19 17 17 3 2 3 3 8 2 2 3 3 2 2 2 2 2 5 2 3 3 1 2 1 2 2 3 2 3 2 4 4 4 4 5 5 4 2 1 1 0 1 3 4 5 7
16 19 19 17 17 15 18 18 14 4 3 7 6 5 2 2 3 5 2 2 1 4 2 3 3 3 3 3 3 1 2 2 2 2 3 2 3 2 3 4 5 5 7 7 7 6 5 4 2 3 5 6 7 7
13 12 15 14 12 12 15 19 24 14 5 3 4 3 3 3 4 4 6 2 3 3 3 3 4 3 2 3 3 3 3 2 2 2 3 3 2 3 4 3 4 5 5 4 4 2 3 4 5 4 8 7 8 9
9 12 13 12 8 9 10 11 18 7 4 3 3 4 3 2 1 0 2 4 2 4 8 6 3 3 2 3 2 4 2 3 3 0 4 3 3 2 3 2 0 1 3 4 5 5 6 6 8 7 7 7 8 10
7 11 12 12 9 14 13 9 16 5 3 3 3 3 3 1 3 2 1 3 2 5 5 4 3 3 2 4 2 4 3 1 3 4 3 3 3 2 2 1 3 5 4 4 3 4 6 7 7 10 9 8 7 9
4 8 6 14 15 15 14 11 5 3 3 3 5 3 1 3 3 3 4 5 2 3 3 3 4 4 2 3 3 3 6 6 3 3 3 2 2 2 4 5 6 6 6 5 5 5 6 6 7 11 13 11 11 10
6 1 4 10 11 11 12 3 2 4 3 3 2 2 2 2 2 1 2 2 0 2 2 3 4 3 3 3 1 3 4 3 3 3 2 3 3 5 6 6 6 6 6 6 6 6 6 6 6 8 12 13 10 11
1 1 8 4 5 5 3 4 3 3 4 3 2 2 2 2 2 2 2 1 2 2 2 3 4 3 4 5 3 3 3 2 3 3 3 4 5 6 5 6 6 6 6 6 6 6 5 6 7 8 10 10 9 7
4 5 7 7 6 3 3 4 3 3 3 1 1 1 2 2 3 2 3 3 3 3 5 2 4 3 3 3 4 2 2 3 3 2 2 3 4 5 6 6 6 6 6 5 5 5 5 7 7 8 8 7 8 8
10 12 11 13 6 3 4 3 2 3 2 2 2 2 2 2 2 2 3 3 2 2 3 2 3 3 4 3 3 2 3 3 2 1 3 3 4 4 5 4 4 5 4 5 5 10 5 6 5 5 6 9 10 9
8 3 11 6 3 5 3 2 3 2 2 2 2 2 1 2 2 2 1 1 2 2 1 3 3 1 2 2 2 2 2 3 4 4 3 3 3 3 3 3 2 3 2 3 4 6 8 6 7 7 7 7 7 7
2 7 3 5 4 5 4 4 2 1 2 2 2 2 2 1 1 1 3 1 2 3 3 2 1 3 3 3 4 4 3 3 2 1 3 3 3 2 2 2 2 2 3 3 4 5 6 6 7 7 7 8 10 8
7 4 3 4 5 5 1 3 4 3 3 2 1 1 0 1 1 2 1 2 3 2 2 1 1 2 2 1 2 3 2 3 3 2 2 2 3 2 2 2 2 2 4 3 2 4 6 11 10 9 8 8 8 8
6 3 3 3 3 2 2 3 2 2 1 0 1 3 2 1 2 2 2 2 2 3 3 5 1 1 3 4 2 3 4 3 2 2 1 2 1 3 2 3 3 3 3 4 3 5 6 6 12 8 8 9 9 9
5 4 5 3 2 4 3 3 2 2 0 2 1 2 2 2 2 1 2 3 2 3 5 5 4 3 3 1 2 3 4 2 1 2 3 1 1 3 3 3 3 4 2 2 6 7 7 7 7 8 9 9 11 12
3 2 3 4 1 3 4 2 3 3 2 1 4 2 2 2 1 4 2 1 1 1 3 3 2 2 4 3 3 3 3 2 1 1 3 1 1 2 3 3 3 4 1 4 7 9 9 8 8 11 10 12 17 13
3 3 2 1 2 3 1 2 2 2 3 3 3 3 2 1 3 1 1 2 1 2 2 3 3 3 1 2 2 2 2 0 1 4 5 4 3 3 3 2 3 4 7 7 7 8 9 10 10 11 11 9 6 7
3 3 5 3 2 1 3 2 3 4 2 2 3 3 5 4 1 1 1 2 2 1 1 2 2 2 1 2 2 3 3 3 6 3 2 2 2 2 1 1 3 17 9 8 8 8 8 9 10 12 8 8 8 6
1 1 3 2 2 1 3 4 3 1 1 2 3 2 2 2 1 1 2 2 2 3 3 3 3 3 3 4 2 3 2 2 3 3 2 3 3 3 2 5 6 6 6 7 16 15 13 11 10 7 6 6 6 6
1 0 3 1 4 4 3 0 1 1 1 2 1 2 2 2 1 1 1 3 2 1 1 1 2 2 2 3 4 5 3 0 1 2 1 4 4 7 8 8 8 8 7 8 9 10 16 10 8 4 5 4 4 4
1 2 2 1 1 0 1 2 2 2 2 2 2 3 2 2 1 2 2 1 2 2 3 4 4 2 2 4 2 3 5 2 3 5 5 6 7 8 8 8 8 8 8 9 9 8 8 8 5 5 5 6 6 5
2 1 3 0 2 2 3 2 2 2 3 2 2 2 2 2 1 0 1 2 3 3 3 2 4 6 4 3 3 4 11 6 6 6 9 8 8 9 9 8 8 7 7 7 7 7 7 6 4 4 4 4 4 5
2 2 2 2 3 3 2 3 4 2 3 2 1 1 1 2 2 1 1 1 2 2 2 3 5 6 6 6 6 5 8 5 10 18 19 18 19 16 10 7 5 5 7 6 6 5 4 3 2 3 4 4 4 5
Wind_Direction
295 285 284 280 276 267 272 275 226 212 210 209 206 207 206 202 197 169 213 179 146 177 261 210 186 140 124 168 158 168 92 283 77 170 171 219 197 221 196 164 177 168 147 198 121 190 276 159 83 174 194 146 155 150
295 291 281 280 264 265 265 261 238 207 207 204 203 200 198 195 187 179 186 184 144 155 215 113 294 112 134 180 142 185 148 151 175 110 216 110 199 146 160 237 126 211 191 185 186 215 235 199 147 151 151 147 171 147
299 293 287 275 265 267 258 243 229 199 203 202 197 194 193 188 181 172 156 151 118 134 314 107 208 101 57 37 308 135 202 147 153 147 151 166 218 127 181 237 224 249 143 208 113 27 144 171 27 86 149 145 141 132
307 301 294 283 273 253 234 218 212 191 196 196 191 187 185 177 177 171 161 175 121 130 181 213 116 64 341 15 82 20 121 87 104 96 107 150 180 150 219 259 199 213 109 188 278 280 96 11 179 160 134 134 142 151
318 312 304 286 244 218 198 195 192 184 187 184 177 177 176 172 177 174 145 194 175 148 157 146 102 358 11 97 113 107 108 104 109 113 146 200 182 136 63 87 249 192 196 171 240 214 197 237 202 181 168 184 187 188
331 332 330 266 214 186 176 178 174 171 172 169 169 170 171 169 163 137 175 215 173 155 115 159 62 69 55 72 84 88 82 89 118 142 172 202 237 130 142 215 257 256 296 166 225 15 199 241 197 202 201 212 204 196
345 349 0 29 158 161 160 156 155 159 162 165 165 169 166 164 164 175 183 135 150 102 115 132 198 184 97 91 59 65 47 91 108 155 192 175 148 158 206 210 218 228 241 303 235 152 291 180 221 224 215 166 177 184
358 4 15 25 33 67 110 125 136 148 156 158 163 162 155 142 117 85 7 103 101 93 104 145 134 143 206 116 105 37 110 105 90 123 113 132 98 92 250 252 359 5 349 328 306 223 227 235 112 107 168 161 188 223
6 10 19 36 44 44 39 78 128 142 152 156 137 114 107 73 130 118 104 73 48 93 163 148 159 169 166 95 108 87 76 120 355 117 116 127 139 221 183 127 17 318 234 261 273 257 269 242 262 220 205 219 242 267
11 15 24 31 46 55 52 45 53 64 74 108 82 77 112 162 123 98 35 36 24 30 64 119 121 124 142 139 99 114 43 87 116 48 85 270 263 316 331 268 256 288 301 304 259 246 231 257 244 232 229 244 240 262
13 15 22 35 45 53 62 57 37 17 26 47 73 71 78 77 87 66 104 144 129 126 148 112 104 126 15 110 105 61 129 104 104 226 158 208 260 245 334 353 357 343 327 329 249 14 39 163 162 234 301 279 278 276
15 12 20 32 36 40 49 44 51 41 56 72 80 89 88 57 63 84 75 87 166 163 127 117 109 97 93 96 101 84 99 66 156 131 77 264 255 252 340 349 2 27 33 41 40 43 29 16 330 277 278 277 270 265
4 22 19 28 42 43 44 70 91 81 46 39 51 65 38 350 85 134 151 183 146 168 159 136 107 105 107 89 75 95 93 158 76 75 221 226 252 327 337 334 22 40 57 57 28 4 336 325 321 282 294 291 277 280
16 23 29 36 40 83 77 67 34 40 77 61 59 51 33 18 36 180 130 125 115 118 120 109 89 97 103 75 118 101 110 88 68 145 232 244 236 279 292 280 196 48 28 7 341 336 329 314 300 289 262 266 275 284
39 28 25 28 44 97 101 64 18 27 48 56 47 53 31 49 19 11 16 87 50 116 105 97 69 81 66 101 76 106 78 175 201 222 224 218 215 233 258 245 253 280 298 308 284 293 295 296 292 297 296 282 271 281
46 18 36 68 78 84 80 64 30 28 53 53 50 72 3 46 349 28 77 109 30 95 81 58 97 75 68 112 88 183 129 198 234 215 222 192 205 247 258 251 255 253 256 268 274 270 281 283 287 300 304 298 291 284
38 14 92 77 68 50 39 65 37 43 55 50 38 23 93 75 127 165 91 107 241 75 99 102 86 167 98 69 112 181 192 203 202 224 204 208 242 265 273 278 278 281 290 292 288 282 275 286 298 298 293 296 290 286
34 293 119 69 22 31 31 32 70 63 52 16 51 4 9 38 80 58 63 35 69 89 111 162 126 102 144 145 233 230 220 229 216 215 230 259 260 267 264 276 284 285 290 289 281 280 278 288 291 290 288 291 295 292
163 129 106 53 61 80 52 29 35 77 39 21 30 23 15 16 26 57 83 43 58 91 108 48 86 147 199 207 195 208 219 199 209 225 227 256 261 274 280 291 295 288 280 275 284 281 282 278 280 291 292 299 296 297
134 113 72 46 53 77 65 28 357 57 51 6 22 16 40 41 348 21 77 51 48 52 55 107 198 199 181 191 181 179 191 176 150 295 284 285 272 278 280 275 273 282 292 295 287 302 302 296 292 299 297 299 306 304
67 55 37 42 40 59 87 41 50 36 55 67 337 36 3 0 39 22 47 23 48 173 236 223 231 131 159 151 166 180 217 159 203 200 233 260 263 246 269 272 271 298 292 303 296 301 319 301 304 304 299 295 307 307
78 67 62 25 62 21 64 17 98 26 41 10 32 45 57 41 328 43 322 70 234 237 193 214 193 159 189 229 243 207 209 170 182 231 296 318 324 335 328 307 330 296 287 279 284 296 306 307 301 307 316 307 316 306
93 57 50 36 62 40 299 341 60 6 27 299 26 97 133 317 340 316 352 236 259 271 294 355 263 207 220 243 102 53 65 101 81 47 342 327 295 292 285 295 284 274 304 298 276 303 301 310 321 317 312 313 305 304
41 58 87 52 83 159 21 20 55 71 105 154 50 323 317 255 326 51 250 265 278 326 343 323 218 63 29 37 54 61 43 59 43 330 315 304 294 288 304 291 298 281 272 288 298 303 312 304 313 309 303 301 299 299
81 325 89 17 4 72 55 29 13 69 122 217 94 309 266 23 60 269 240 282 333 343 350 348 35 48 115 113 79 70 54 60 356 292 282 168 12 305 284 260 284 282 279 349 322 316 306 302 301 299 300 304 301 298
86 294 157 181 292 116 173 127 203 212 143 178 222 258 29 89 89 250 218 324 311 312 330 352 1 41 41 31 35 10 343 336 344 262 286 145 232 230 272 308 318 320 57 332 312 304 302 304 303 302 299 300 310 317
103 253 283 312 124 113 70 50 52 118 175 205 175 158 87 115 252 263 75 28 23 6 356 3 28 55 59 330 317 313 297 259 210 258 285 288 271 246 220 235 288 298 312 303 298 297 297 299 300 297 297 295 294 297
184 176 162 215 63 36 135 126 171 211 216 136 121 175 173 200 133 76 29 359 342 301 324 344 1 346 316 306 291 325 327 334 305 309 317 299 253 284 245 253 291 314 309 298 295 296 290 287 287 289 290 306 308 302
82 298 93 62 22 13 208 189 211 242 30 156 179 164 139 47 25 13 10 353 0 57 53 26 353 349 341 332 336 324 293 349 24 20 347 303 317 299 313 311 302 295 290 290 298 304 299 298 303 319 320 302 299 298
300 79 83 151 156 218 244 333 112 298 9 47 64 96 78 55 5 350 8 24 50 84 216 243 304 23 331 341 327 333 301 45 195 111 293 285 278 296 302 295 293 291 291 289 290 292 301 308 305 315 316 314 318 317
351 50 69 74 233 342 10 335 342 35 33 42 3 96 115 153 18 14 36 25 105 73 44 2 335 314 351 334 315 323 320 299 261 283 263 282 285 284 284 283 283 284 282 281 283 289 297 304 298 305 312 322 330 355
27 87 130 206 282 310 19 51 35 62 356 50 355 44 43 70 121 313 30 45 39 33 10 17 341 324 298 257 248 236 272 282 289 287 287 282 275 268 268 272 275 280 287 292 295 295 294 294 304 318 325 350 6 11
28 33 28 44 6 4 329 82 27 18 26 42 349 186 163 119 141 161 165 113 172 213 247 277 299 306 297 284 278 287 302 276 292 308 312 314 312 314 311 300 302 292 289 291 294 304 326 349 354 15 36 38 30 29